EHI
3 2 1 1 5 11 15 15 14 14 13 11 10 8 6 4 3 3 2 1 0 0 0 0 0 0 1 3 3 3 3 2 3 3 2 1 0 0 0 1 2 3 3
3 2 2 4 7 11 13 13 14 15 15 14 13 11 8 5 4 4 4 2 0 0 0 0 0 1 2 3 3 3 3 3 3 3 3 2 1 1 1 2 3 3 3
3 3 4 6 8 8 9 11 14 17 18 17 16 14 11 6 5 5 5 4 2 1 0 0 0 2 3 3 3 3 3 3 3 3 3 3 3 2 1 1 2 2 1
4 4 6 7 6 5 6 11 16 20 20 18 16 15 12 8 6 6 6 5 4 3 1 0 0 1 2 1 1 2 3 3 3 3 3 3 3 3 3 2 1 1 0
4 4 5 7 6 5 9 15 20 24 24 20 16 15 13 10 8 7 7 6 5 3 2 1 1 1 2 1 1 2 3 3 3 3 3 3 4 5 4 3 2 1 0
4 4 5 7 8 11 14 19 24 27 26 22 18 17 16 13 10 9 8 6 4 3 2 2 2 3 3 3 3 3 3 3 3 3 3 4 5 5 4 3 3 2 1
4 5 7 9 12 16 18 20 23 24 23 22 21 20 18 15 12 9 8 6 4 3 3 3 3 3 4 4 4 4 4 4 4 3 3 3 4 4 3 3 3 2 1
6 6 7 10 13 16 17 18 19 19 19 21 23 22 19 14 10 9 7 5 4 3 4 4 3 3 3 3 4 4 4 5 5 4 3 3 3 3 3 3 3 3 2
7 6 7 8 10 12 14 15 17 17 17 20 22 21 16 11 9 9 8 5 4 3 4 5 5 5 4 4 4 4 4 5 6 5 5 5 4 3 3 3 4 3 3
7 7 7 6 8 10 11 13 15 16 17 18 19 17 15 12 11 10 8 6 4 4 5 6 7 7 8 7 6 5 4 5 5 5 6 7 5 4 4 4 5 4 3
7 9 8 6 8 9 11 12 14 15 16 17 18 17 15 14 13 12 11 9 8 7 7 7 8 9 10 10 9 7 6 5 4 4 4 5 5 5 5 6 5 4 3
9 11 12 11 11 11 11 12 14 14 14 16 18 18 17 15 14 14 13 13 12 12 11 10 10 11 12 12 11 9 6 5 4 3 3 4 5 7 7 7 6 4 4
12 14 17 17 15 14 14 14 14 14 14 16 18 19 18 16 14 15 15 15 15 15 15 15 14 13 13 13 12 10 7 5 5 5 5 5 6 8 10 9 8 6 5
16 18 19 18 16 15 16 16 15 15 15 17 19 19 17 15 14 15 16 16 16 16 17 17 17 15 13 13 13 12 10 8 7 7 7 6 7 9 10 10 10 9 8
18 19 18 16 15 17 18 18 18 19 19 21 21 19 16 15 14 14 15 16 17 16 16 16 15 14 13 13 14 13 12 10 9 8 7 6 6 6 6 7 8 9 10
17 18 17 16 19 20 20 20 21 22 23 23 22 20 18 17 16 16 16 17 17 15 14 13 13 12 12 12 11 11 12 11 9 8 8 6 5 4 3 3 3 5 7
15 17 17 18 20 22 21 19 20 22 24 24 23 22 20 18 17 16 15 15 15 13 12 11 11 11 10 9 6 7 9 9 8 7 6 5 3 2 2 2 1 2 4
16 17 17 16 17 19 18 17 19 22 24 25 25 23 20 18 16 15 14 13 12 12 11 11 12 12 9 6 3 4 7 8 7 5 4 4 3 2 2 2 3 4 5
17 16 16 15 15 15 15 17 22 24 24 24 25 23 19 17 16 14 14 14 13 12 11 12 13 12 9 6 3 4 6 7 6 5 4 4 3 1 1 2 4 6 7
17 15 14 14 15 14 15 20 24 24 23 22 21 19 17 16 16 16 16 15 14 12 11 11 12 11 9 6 3 3 5 6 6 5 3 2 1 0 0 2 3 5 6
15 14 13 14 15 15 16 19 22 22 20 19 18 16 14 13 14 15 15 15 13 12 10 9 8 8 7 4 2 2 3 4 5 4 2 1 0 0 0 1 2 3 3
13 12 12 15 15 17 17 17 17 17 17 17 16 14 11 10 10 12 13 13 12 10 8 6 5 4 3 2 1 0 1 1 2 2 1 0 0 0 0 0 1 1 1
12 11 13 16 17 18 18 16 14 14 15 15 14 12 9 7 6 7 10 11 10 9 7 4 2 1 1 0 0 0 0 0 0 0 0 0 0 0 0 0 0 0 0
13 13 16 17 18 18 17 15 13 12 12 12 11 9 8 6 5 5 7 10 10 10 6 2 0 0 0 0 0 0 0 0 0 0 0 0 0 0 0 0 0 0 0
14 15 17 18 17 15 15 13 12 11 9 8 7 6 6 6 5 5 6 7 9 8 4 1 0 0 0 0 0 0 0 0 0 0 0 0 0 0 0 0 0 0 0
15 15 17 17 15 14 13 12 12 10 7 5 5 5 5 6 6 6 6 6 7 5 2 0 0 0 0 0 0 0 0 0 0 0 0 0 0 0 0 0 0 0 0
Wind_Speed
5 6 6 5 5 5 5 4 3 4 3 2 1 2 1 1 2 2 3 3 3 3 2 2 2 2 2 2 2 2 1 1 1 1 1 2 2 2 1 1 1 1 2
6 6 6 6 5 5 5 5 4 4 3 2 2 1 1 1 2 2 3 3 3 3 2 3 2 3 2 2 2 2 2 2 1 2 1 1 2 2 2 1 1 1 1
7 7 7 7 6 5 5 4 4 4 3 3 3 3 2 1 2 2 2 3 3 3 3 3 3 2 2 2 2 2 2 1 1 2 3 2 1 1 2 2 1 1 1
7 7 8 7 7 6 6 5 5 5 4 4 3 3 2 1 2 1 2 2 3 3 3 2 2 2 2 2 2 2 2 2 1 1 1 2 2 2 1 2 2 1 1
6 7 7 7 7 7 6 6 6 5 5 4 4 3 2 2 2 2 3 2 3 2 2 2 2 2 2 2 3 2 3 2 3 2 1 1 0 1 1 0 1 1 1
6 6 7 7 7 7 7 7 7 5 5 4 4 3 3 2 2 2 2 1 1 2 2 2 2 2 2 2 2 2 2 3 3 3 2 1 1 1 0 0 1 0 0
6 6 7 8 7 7 7 7 7 6 6 5 4 4 3 3 2 1 2 0 1 1 2 2 2 2 2 2 2 2 3 2 2 3 2 2 1 1 1 1 0 1 1
5 6 7 7 8 8 7 7 7 6 6 5 4 4 3 2 2 1 0 0 1 2 2 1 2 2 2 2 2 2 1 2 2 2 3 2 1 1 1 1 1 1 1
5 5 6 7 7 7 7 7 7 6 6 5 5 4 3 1 1 1 1 0 1 0 0 1 2 2 2 2 2 2 2 2 2 2 2 2 1 1 1 1 2 2 2
5 5 6 6 6 7 7 7 7 6 6 6 4 4 3 3 2 1 1 1 1 1 1 1 1 2 2 2 2 2 1 1 1 2 2 2 2 1 1 1 1 2 2
5 6 6 6 6 6 7 7 7 6 6 5 4 4 3 3 3 2 1 0 0 0 1 1 1 2 2 2 2 2 1 2 2 2 1 2 2 2 1 1 1 1 2
5 5 6 6 6 5 5 6 6 6 6 5 5 4 4 3 2 2 1 1 0 0 0 1 2 2 1 2 2 2 2 2 2 2 2 2 1 2 2 2 1 1 1
5 5 5 5 5 5 5 5 5 5 5 5 5 4 4 3 2 2 1 1 1 0 0 1 1 2 2 2 2 2 2 2 3 3 3 2 2 2 1 2 2 1 2
5 5 5 5 5 5 5 5 4 4 5 5 5 4 3 2 2 2 2 1 1 1 0 0 1 2 2 2 2 2 2 2 3 3 3 3 2 2 2 2 2 2 2
5 5 4 4 5 5 5 5 4 4 4 4 4 4 3 2 2 2 2 1 1 1 0 1 1 2 2 2 3 3 2 2 2 2 3 2 3 3 3 3 1 2 2
5 5 4 4 5 5 5 5 5 4 4 4 4 4 3 3 2 2 2 1 1 0 0 1 1 2 2 5 5 4 3 2 3 2 2 2 1 0 0 2 3 3 2
4 4 4 4 4 5 5 5 5 5 4 4 4 4 3 2 2 2 2 1 1 1 1 1 2 2 3 4 3 4 4 3 2 2 2 3 2 1 1 1 3 2 2
3 4 4 4 4 5 5 4 5 5 4 4 3 3 3 2 2 2 1 1 1 1 0 1 2 2 2 3 3 3 3 2 2 2 2 2 2 3 3 2 2 2 2
3 3 4 5 5 5 5 5 5 5 4 3 3 3 2 2 2 2 1 1 0 0 0 1 1 1 2 3 3 4 2 1 1 1 2 2 1 4 4 2 2 2 1
4 4 5 5 5 5 5 5 4 4 3 3 3 2 2 2 2 1 1 1 1 0 0 1 2 2 2 3 2 4 2 1 1 1 1 2 3 3 3 2 2 2 1
5 5 5 5 4 4 4 4 4 3 3 3 3 2 2 2 2 2 1 1 0 1 1 1 1 1 2 2 3 4 3 3 3 2 1 2 4 2 2 3 2 2 3
6 6 6 5 5 4 4 4 3 3 3 3 3 2 1 1 2 2 1 1 0 1 1 1 1 1 1 2 3 3 4 5 3 3 3 3 3 0 2 2 1 2 4
6 5 6 6 5 5 4 4 3 3 2 2 2 2 2 1 1 1 1 1 1 1 1 1 1 1 1 2 2 1 1 3 3 2 4 3 1 2 3 3 3 5 5
6 6 6 6 5 4 4 3 3 3 2 2 2 2 2 2 1 0 0 0 1 1 1 1 2 1 1 1 1 1 1 2 2 1 1 3 4 3 2 2 4 4 3
6 6 5 5 5 5 4 3 3 3 3 2 2 2 2 2 1 1 1 0 1 2 2 2 2 2 2 2 3 3 3 3 3 3 2 2 1 2 2 2 2 2 2
6 5 5 5 5 4 4 3 3 3 2 2 2 2 2 2 2 2 2 2 2 2 1 1 3 2 2 1 1 2 3 3 4 4 2 2 2 2 2 3 2 2 2
Wind_Direction
168 164 161 156 153 153 150 150 149 145 158 155 152 131 104 82 83 84 64 45 31 36 22 23 40 8 28 17 16 11 59 55 45 80 111 121 114 95 94 74 67 100 135
171 167 169 164 160 156 155 154 157 151 162 137 131 114 88 77 69 57 64 42 37 28 42 28 9 30 33 29 15 0 359 28 24 326 301 156 141 135 96 96 116 94 116
181 174 172 170 168 164 164 156 153 151 153 148 150 135 141 146 104 81 72 46 41 41 38 34 20 18 9 39 7 349 4 7 19 352 329 329 22 96 121 110 96 97 105
185 180 174 172 171 168 161 159 156 153 153 160 150 144 125 93 71 62 66 60 56 50 55 48 30 4 7 23 338 21 333 313 331 26 342 344 358 310 136 134 113 128 131
182 181 177 170 169 164 159 155 152 149 150 151 149 165 145 123 104 91 85 58 67 55 46 38 27 8 359 5 351 354 330 321 324 335 336 344 280 274 288 56 55 93 114
177 178 171 166 167 163 160 156 152 149 152 156 151 153 135 122 106 99 96 101 88 68 49 34 15 354 357 357 337 332 337 335 336 324 328 319 323 317 332 227 226 45 150
170 171 168 167 169 167 164 159 153 154 155 153 151 147 148 156 155 165 116 36 57 69 46 15 1 351 348 339 334 337 335 335 321 311 313 313 324 315 289 259 258 265 220
163 168 164 166 167 165 165 162 156 155 156 156 152 147 165 185 148 132 50 92 6 36 27 358 348 337 328 329 332 318 320 326 314 317 315 302 305 290 259 260 253 248 227
153 159 157 161 162 163 163 164 158 157 159 157 155 150 161 156 112 135 206 100 11 337 21 314 313 324 331 328 316 332 323 322 304 303 293 295 313 290 275 269 279 275 270
145 142 144 149 156 159 156 160 158 159 162 163 167 148 156 157 157 161 89 14 347 351 308 293 312 317 321 314 304 298 328 312 309 309 326 312 309 304 278 273 279 284 282
143 137 139 143 145 149 153 157 159 161 163 159 151 143 150 154 160 156 160 148 344 343 317 310 302 302 313 315 305 300 311 307 311 306 308 296 310 296 279 265 264 272 269
131 130 134 141 145 147 148 152 159 160 157 152 151 149 146 154 164 155 164 158 165 231 10 340 315 299 314 321 307 302 318 310 309 311 308 294 275 267 281 275 273 272 281
136 131 134 138 143 145 145 142 151 152 150 148 151 145 151 153 160 160 163 162 172 252 347 9 347 332 333 335 327 324 322 313 311 311 307 302 299 288 278 267 263 255 240
146 140 139 139 138 140 139 139 145 146 143 148 149 146 147 150 163 162 161 165 186 225 280 340 352 340 334 353 341 322 307 308 316 318 313 306 298 287 271 247 241 246 246
157 149 140 132 141 141 143 144 145 141 140 151 155 151 153 161 174 171 167 172 206 224 235 303 326 319 310 4 353 326 304 298 303 314 311 316 333 340 321 309 280 240 241
168 158 148 145 153 149 152 150 147 142 149 158 153 147 154 163 176 184 180 175 174 253 299 292 305 313 346 30 1 329 322 308 297 303 302 290 282 10 101 352 341 316 264
167 162 162 160 155 153 155 154 147 146 153 158 152 147 155 161 175 177 164 168 184 198 259 298 312 328 8 27 1 335 308 305 318 319 318 311 348 325 285 187 203 225 254
156 157 157 148 146 145 144 146 146 150 152 149 148 148 162 171 176 174 164 178 228 244 280 314 315 319 9 29 345 315 278 297 319 315 319 326 335 356 328 274 243 223 204
148 150 146 139 135 139 142 145 150 149 148 143 144 148 160 158 159 160 153 167 230 281 342 337 324 333 14 34 352 311 284 289 297 303 327 326 329 19 342 287 259 247 203
122 131 131 129 130 135 136 142 144 145 147 145 146 149 149 143 129 110 109 97 109 90 33 49 2 348 360 41 3 315 293 310 304 309 324 39 19 30 346 286 271 261 301
120 123 122 116 118 129 137 140 132 140 141 135 137 135 131 136 118 106 106 103 79 72 57 60 26 28 28 61 42 344 314 320 313 323 331 60 83 45 345 306 299 337 316
125 126 121 113 112 120 130 129 126 114 120 131 134 132 133 126 112 114 115 99 106 164 130 87 3 60 76 55 54 21 350 336 323 330 344 38 74 3 283 283 356 311 279
133 132 126 121 114 115 121 120 108 106 115 118 114 112 116 112 118 145 146 171 197 280 347 350 358 22 49 91 120 136 324 320 310 346 19 12 269 235 230 220 248 251 252
142 139 136 130 121 115 115 112 109 115 127 126 127 137 148 145 124 82 63 9 355 335 331 330 330 350 14 0 357 309 232 227 249 281 228 215 226 244 270 235 225 243 273
143 140 138 135 133 129 125 122 114 121 130 133 145 166 169 151 153 160 20 336 21 4 319 321 326 325 319 18 6 323 324 329 338 309 273 269 261 258 258 261 267 265 258
141 140 142 142 139 137 131 128 134 141 155 169 178 185 182 175 196 186 169 136 176 134 154 334 314 316 3 39 3 339 332 329 311 285 274 283 285 286 293 291 286 277 281